TimeCST,TemperatureF,Dew PointF,Humidity,Sea Level PressureIn,VisibilityMPH,Wind Direction,Wind SpeedMPH,Gust SpeedMPH,PrecipitationIn,Events,Conditions,WindDirDegrees,DateUTC
12:53 AM,6.1,-5.1,60,30.18,10.0,NE,3.5,-,N/A,,Scattered Clouds,50,2013-12-16 06:53:00
1:53 AM,5.0,-6.0,61,30.18,10.0,Calm,Calm,-,N/A,,Clear,0,2013-12-16 07:53:00
2:53 AM,3.9,-6.0,64,30.19,10.0,Calm,Calm,-,N/A,,Mostly Cloudy,0,2013-12-16 08:53:00
3:53 AM,5.0,-6.0,61,30.18,10.0,Variable,4.6,-,N/A,,Overcast,0,2013-12-16 09:53:00
4:53 AM,5.0,-7.1,58,30.16,10.0,ENE,3.5,-,N/A,,Overcast,60,2013-12-16 10:53:00
5:53 AM,3.9,-6.0,64,30.17,10.0,Calm,Calm,-,N/A,,Overcast,0,2013-12-16 11:53:00
6:53 AM,3.9,-6.0,64,30.18,10.0,Calm,Calm,-,N/A,,Scattered Clouds,0,2013-12-16 12:53:00
7:53 AM,5.0,-6.0,61,30.16,10.0,Calm,Calm,-,N/A,,Overcast,0,2013-12-16 13:53:00
8:53 AM,6.1,-5.1,60,30.19,10.0,NNE,3.5,-,N/A,,Overcast,20,2013-12-16 14:53:00
9:53 AM,9.0,-4.0,56,30.16,10.0,ESE,5.8,-,N/A,,Overcast,110,2013-12-16 15:53:00
10:53 AM,12.0,-4.0,49,30.13,10.0,Variable,4.6,-,N/A,,Overcast,0,2013-12-16 16:53:00
11:48 AM,12.2,-0.4,57,30.06,2.5,SSW,5.8,-,0.00,Snow,Light Snow,200,2013-12-16 17:48:00
11:53 AM,12.0,1.9,64,30.11,1.0,SSW,5.8,-,0.00,Snow,Light Snow,210,2013-12-16 17:53:00
12:00 PM,10.9,3.9,73,30.06,0.2,SSW,3.5,-,0.00,Snow,Heavy Snow,210,2013-12-16 18:00:00
12:11 PM,10.9,5.0,77,30.05,0.2,Calm,Calm,-,0.01,Snow,Heavy Snow,0,2013-12-16 18:11:00
12:21 PM,10.0,6.1,84,30.04,0.2,Calm,Calm,-,0.03,Fog-Snow,Heavy Snow,0,2013-12-16 18:21:00
12:51 PM,10.4,6.8,85,30.03,0.5,Calm,Calm,-,0.06,Snow,Snow,0,2013-12-16 18:51:00
12:53 PM,10.9,6.1,81,30.08,0.5,Calm,Calm,-,0.06,Snow,Snow,0,2013-12-16 18:53:00
1:27 PM,12.0,7.0,80,30.02,1.0,Calm,Calm,-,0.02,Snow,Light Snow,0,2013-12-16 19:27:00
1:34 PM,12.0,7.0,80,30.02,1.5,Calm,Calm,-,0.02,Snow,Light Snow,0,2013-12-16 19:34:00
1:44 PM,12.0,7.0,80,30.01,0.8,Calm,Calm,-,0.02,Snow,Light Snow,0,2013-12-16 19:44:00
1:53 PM,12.0,7.0,80,30.06,1.0,Calm,Calm,-,0.02,Snow,Light Snow,0,2013-12-16 19:53:00
2:03 PM,12.0,7.0,80,30.01,0.5,Calm,Calm,-,0.01,Snow,Snow,0,2013-12-16 20:03:00
2:16 PM,12.0,8.1,84,30.00,0.2,Calm,Calm,-,0.03,Fog-Snow,Heavy Snow,0,2013-12-16 20:16:00
2:50 PM,12.2,8.6,85,30.02,0.8,Calm,Calm,-,0.04,Snow,Light Snow,0,2013-12-16 20:50:00
2:53 PM,12.9,8.1,81,30.07,0.8,SW,3.5,-,0.04,Snow,Light Snow,220,2013-12-16 20:53:00
3:08 PM,12.9,8.1,81,30.03,1.2,Calm,Calm,-,0.00,Snow,Light Snow,0,2013-12-16 21:08:00
3:27 PM,12.9,8.1,81,30.05,0.5,WSW,3.5,-,0.01,Snow,Snow,240,2013-12-16 21:27:00
3:53 PM,12.9,8.1,81,30.10,1.0,SW,4.6,-,0.03,Snow,Light Snow,230,2013-12-16 21:53:00
4:00 PM,12.9,8.1,81,30.05,2.0,SSW,3.5,-,0.00,Snow,Light Snow,210,2013-12-16 22:00:00
4:07 PM,12.9,8.1,81,30.04,2.5,South,4.6,-,0.00,Snow,Light Snow,190,2013-12-16 22:07:00
4:15 PM,12.9,8.1,81,30.05,7.0,SSW,4.6,-,0.00,Snow,Light Snow,200,2013-12-16 22:15:00
4:46 PM,12.9,8.1,81,30.05,10.0,Calm,Calm,-,0.00,,Overcast,0,2013-12-16 22:46:00
4:53 PM,12.9,8.1,81,30.10,10.0,Calm,Calm,-,0.00,,Overcast,0,2013-12-16 22:53:00
5:53 PM,12.9,8.1,81,30.09,10.0,Calm,Calm,-,N/A,,Overcast,0,2013-12-16 23:53:00
6:31 PM,12.9,8.1,81,30.04,10.0,Calm,Calm,-,N/A,,Overcast,0,2013-12-17 00:31:00
6:53 PM,14.0,8.1,77,30.10,10.0,SW,3.5,-,N/A,,Overcast,230,2013-12-17 00:53:00
7:53 PM,14.0,9.0,80,30.09,10.0,SSW,3.5,-,N/A,,Overcast,200,2013-12-17 01:53:00
8:17 PM,14.0,9.0,80,30.04,10.0,SSW,4.6,-,N/A,,Overcast,210,2013-12-17 02:17:00
8:53 PM,14.0,9.0,80,30.08,10.0,SSW,3.5,-,N/A,,Overcast,200,2013-12-17 02:53:00
9:53 PM,15.1,10.9,84,30.07,9.0,SW,5.8,-,N/A,,Overcast,220,2013-12-17 03:53:00
10:53 PM,16.0,12.0,84,30.08,8.0,SSW,6.9,-,N/A,,Overcast,210,2013-12-17 04:53:00